Station 44137 - East Scotia Slope Image indicating link to RSS feed of recent meteorological observations for station 44137

Data from this station are not quality controlled by NDBC


Conditions at 44137 as of
(6:00 pm ADT)
2100 GMT on 05/27/2024:
     

Click on the graph icon in the table below to see a time series plot of the last five days of that observation.

5-day plot - Wind Direction Wind Direction (WDIR):ESE ( 120 deg true )
5-day plot - Wind Speed Wind Speed (WSPD): 9.7 kts
5-day plot - Wind Gust Wind Gust (GST): 11.7 kts
5-day plot - Wave Height Wave Height (WVHT): 3.0 ft
5-day plot - Dominant Wave Period Dominant Wave Period (DPD): 5 sec
5-day plot - Atmospheric Pressure Atmospheric Pressure (PRES):30.21 in
5-day plot - Pressure Tendency Pressure Tendency (PTDY):-0.01 in ( Falling )
5-day plot - Air Temperature Air Temperature (ATMP): 58.5 °F
5-day plot - Water Temperature Water Temperature (WTMP): 53.2 °F
5-day plot -  Wind Speed, Wind Gust and Atmospheric Pressure Combined plot of Wind Speed, Gust, and Air Pressure

Data from this station are not quality controlled by NDBC

Previous observations
TIME
(ADT)
5-day plot - Wind Direction
WDIR
 
5-day plot - Wind Speed
WSPD
kts
5-day plot - Wind Gust
GST
kts
5-day plot - Wave Height
WVHT
ft
5-day plot - Dominant Wave Period
DPD
sec
5-day plot - Average Wave Period
APD
sec
5-day plot - Mean Wave Direction
MWD
 
5-day plot - Atmospheric Pressure
PRES
in
5-day plot - Pressure Tendency
PTDY
in
5-day plot - Air Temperature
ATMP
°F
5-day plot - Water Temperature
WTMP
°F
5-day plot - Dew Point
DEWP
°F
5-day plot - Salinity
SAL
psu
5-day plot - Visibility
VIS
nmi
5-day plot - Tide (above MLLW)
TIDE
ft
2024-05-27 05:00 pm SE 11.7 13.6 2.6 5--30.21-0.02 58.1 53.4----
2024-05-27 04:00 pmESE 13.6 15.5 2.3 4--30.21-0.02 57.9 53.6----
2024-05-27 03:00 pm E 11.7 11.7 2.0 5--30.22-0.00 58.3 53.6----
2024-05-27 02:00 pm E 7.8 9.7 1.6 7--30.22+0.01 57.0 54.0----
2024-05-27 01:00 pmENE 5.8 7.8 1.6 7--30.23+0.01 56.8 53.2----
2024-05-27 12:00 pmESE 7.8 7.8 1.6 7--30.22+0.01 57.9 52.9----
2024-05-27 11:00 am E 5.8 7.8 1.6 8--30.22+0.02 55.4 52.7----
2024-05-27 10:00 am E 5.8 5.8 1.6 7--30.22+0.03 56.1 52.2----
2024-05-27 09:00 amESE 5.8 5.8 1.6 8--30.21+0.04 55.2 52.5----
2024-05-27 08:00 amESE 5.8 5.8 1.6 8--30.19+0.04 54.3 52.5----
2024-05-27 07:00 am E 5.8 7.8 1.6 7--30.19+0.02 54.0 52.3----
2024-05-27 06:00 amENE 7.8 9.7 1.6 8--30.17+0.01 53.6 52.3----
2024-05-27 05:00 am SE 3.9 5.8 1.6 8--30.15+0.00 53.6 52.0----
2024-05-27 04:00 am E 3.9 5.8 1.6 8--30.16+0.01 53.2 52.3----
2024-05-27 03:00 amENE 5.8 5.8 1.6 8--30.16+0.01 53.4 52.3----
2024-05-27 02:00 am NE 3.9 3.9 1.6 8--30.15-0.00 53.2 52.5----
2024-05-27 01:00 amNNW 1.9 5.8 1.6 8--30.16+0.00 53.1 52.7----
2024-05-27 12:00 amNNW 3.9 5.8 2.0 7--30.15+0.03 53.4 53.4----
2024-05-26 11:00 pmNNW 3.9 5.8 2.0 7--30.15+0.04 53.8 53.6----
2024-05-26 10:00 pmWNW 3.9 5.8 2.0 7--30.15+0.04 54.1 54.1----
2024-05-26 09:00 pmWSW 1.9 3.9 2.0 6--30.12+0.03 54.3 54.3----
2024-05-26 08:00 pmWSW 3.9 3.9 2.3 7--30.12+0.04 55.0 54.7----
2024-05-26 07:00 pmWSW 3.9 5.8 2.0 7--30.11+0.03 54.9 54.7----
2024-05-26 06:00 pm SW 3.9 5.8 2.0 7--30.09+0.02 55.0 54.3----